Regional Weather Roundup
Issued by NWS

Home | Current Version | Previous Version | Text Only | Print | Product List | Glossary Off
Versions: 1 2 3 4 5 6 7 8 9 10 11 12 13 14 15 16 17 18 19 20 21 22 23 24 25 26 27 28 29 30 31 32 33 34 35 36 37 38 39 40 41 42 43 44 45 46 47 48 49 50

000
ASUS43 KLOT 282108
RWRIL

ILLINOIS REGIONAL WEATHER ROUNDUP
NATIONAL WEATHER SERVICE CHICAGO/ROMEOVILLE IL
400 PM CDT SAT MAR 28 2015

NOTE: "FAIR" INDICATES FEW OR NO CLOUDS BELOW 12,000 FEET WITH NO
SIGNIFICANT WEATHER AND/OR OBSTRUCTIONS TO VISIBILITY.

* THESE STATIONS ARE NOT UNDER NWS QUALITY CONTROL. THEY ALSO MAY NOT
  REPORT WEATHER SUCH AS PRECIPITATION OR FOG.

ILZ001-002-007-009-015-016-024-282200-
NORTHWEST ILLINOIS

CITY           SKY/WX    TMP DP  RH WIND       PRES   REMARKS
MOLINE         SUNNY     41   9  26 E6G20     30.27F
STERLING*      SUNNY     41  18  38 SW3       30.29F
SAVANNA*       SUNNY     42  12  30 SW9G17    30.28F
$$

ILZ003-004-008-010-011-017-018-282200-
NORTH CENTRAL ILLINOIS

CITY           SKY/WX    TMP DP  RH WIND       PRES   REMARKS
ROCKFORD       SUNNY     39  11  31 W8        30.30F WCI  33
FREEPORT*      SUNNY     37  14  38 CALM      30.29F
ROCHELLE*      SUNNY     38  15  38 SE3       30.29S
DE KALB*       SUNNY     37  11  33 S5        30.28F WCI  34
PERU*          SUNNY     40  10  29 E5        30.29F
$$

ILZ005-006-012>014-019>023-282200-
NORTHEAST ILLINOIS

CITY           SKY/WX    TMP DP  RH WIND       PRES   REMARKS
CHICAGO-OHARE  SUNNY     36   7  29 E7        30.30F WCI  30
CHICAGO-MIDWAY SUNNY     35   4  27 CALM      30.32S
AURORA         SUNNY     39   5  24 CALM      30.28F
LANSING*       SUNNY     33   1  25 NE3       30.32S
JOLIET*        SUNNY     41   8  25 CALM      30.30S
WAUKEGAN       SUNNY     30  13  49 SE7       30.30F WCI  23
DUPAGE AIRPORT SUNNY     39   5  24 S6        30.28F WCI  35
KANKAKEE*      SUNNY     39  10  30 E5        30.30F
WHEELING       SUNNY     34   7  32 NE8       30.33S WCI  27
MORRIS*        SUNNY     40   9  28 CALM      30.28F
ROMEOVILLE*    SUNNY     38   5  25 NE7       30.29F WCI  32
NORTHERLY ISL    N/A     29  10  45 NE5         N/A  WCI  24
$$

LMZ740>746-282200-
SOUTHERN LAKE MICHIGAN

STATION/POSITION SKY/WX   TEMP    WIND        PRES    VSBY  WAVE
                          AIR SEA DIR/SP/G                  HT/PER
                          (F)     (DEG/KT/KT) (MB)    (MI)  (FT/S)
HARRISON CRIB              26      40/  6/  7   N/A
BURNHAM HARBOR             29      40/  5/  8   N/A
CALUMET HARBOR             28      40/  8/ 10 1025.7F
BURNS HARBOR               26      10/  6/  9 1027.4F
MICHIGAN CITY              27     350/  7/  9   N/A
$$

ILZ025>027-034>036-040-047-049-050-058-095>099-282200-
WEST-CENTRAL ILLINOIS

CITY           SKY/WX    TMP DP  RH WIND       PRES   REMARKS
QUINCY         SUNNY     43  16  33 E7        30.25F
GALESBURG*     SUNNY     40  13  32 SE7       30.27S
MACOMB*        SUNNY     41  13  32 SE7       30.29F
JACKSONVILLE*  SUNNY     42  17  37 SE8       30.29F
PITTSFIELD*    SUNNY     43  19  38 SE10      30.27F
$$

ILZ028>032-037-038-041>044-048-051>054-059>061-282200-
CENTRAL ILLINOIS

CITY           SKY/WX    TMP DP  RH WIND       PRES   REMARKS
PONTIAC        SUNNY     40  13  33 SE5       30.30S
BLOOMINGTON    SUNNY     40  11  30 CALM      30.29F
DECATUR        SUNNY     41  16  36 VRB3      30.30F
PEORIA         SUNNY     41  12  30 SW3       30.29F
LACON*         SUNNY     41   9  26 S3        30.28F
LINCOLN*       SUNNY     41  17  37 CALM      30.30F
SPRINGFIELD    SUNNY     41  17  38 VRB6      30.30F
TAYLORVILLE    SUNNY     37  21  52 SE6       30.30S WCI  33
$$

ILZ033-039-045-046-055>057-062-063-282200-
EAST-CENTRAL ILLINOIS

CITY           SKY/WX    TMP DP  RH WIND       PRES   REMARKS
CHAMPAIGN      SUNNY     39  12  33 CALM      30.29F
DANVILLE*      SUNNY     37  13  36 N3        30.27S
RANTOUL*       SUNNY     40  11  31 NE3       30.29F
MATTOON        SUNNY     38  16  40 VRB3      30.28F
PARIS*         SUNNY     39  16  38 NW3       30.30F
$$

ILZ079-100>102-282200-
SOUTHWEST ILLINOIS

CITY           SKY/WX    TMP DP  RH WIND       PRES   REMARKS
BELLEVILLE     SUNNY     43  20  40 VRB5      30.27F
CAHOKIA*       SUNNY     45  20  36 MISG      30.27F
SPARTA*        SUNNY     42  19  39 E8        30.29S
$$

ILZ064>066-069>071-074>076-080>082-084>086-088>090-092>094-282200-
SOUTH-CENTRAL ILLINOIS

CITY           SKY/WX    TMP DP  RH WIND       PRES   REMARKS
CARBONDALE     SUNNY     43  17  35 E5        30.28F
CAIRO*         SUNNY     44  22  41 CALM      30.28S
EFFINGHAM*     SUNNY     41  16  36 W3        30.31S
MARION         SUNNY     43  18  36 N3        30.29F
MT. VERNON     SUNNY     45  16  31 CALM      30.29F
CENTRALIA*     SUNNY     41  14  33 CALM      30.28F
SALEM*         SUNNY     42  13  31 CALM      30.29F
METROPOLIS*    SUNNY     46  20  36 NE5       30.26F
$$

ILZ067-068-072-073-078-083-087-091-282200-
SOUTHEAST ILLINOIS

CITY           SKY/WX    TMP DP  RH WIND       PRES   REMARKS
LAWRENCEVILLE  SUNNY     41  18  39 CALM      30.31F
FLORA*         SUNNY     40  21  46 NW3       30.31F
FAIRFIELD*     SUNNY     41  19  41 CALM      30.29F
HARRISBURG*    SUNNY     42  14  32 N6        30.30F
ROBINSON*      SUNNY     39  16  39 W6        30.31F
CARMI*         SUNNY     40  10  29 N5        30.30F
$$

ABBREVIATIONS USED IN REMARKS
   TC - TEMPERATURE IN CELSIUS
  WCI - WIND CHILL INDEX
   HX - HEAT INDEX
  VSB - VISIBILITY
$$



USA.gov is the U.S. government's official web portal to all federal, state and local government web resources and services.